METAR LSZS 121220Z 04009KT 7000 SCT027 BKN047 M01/M04 Q1002
Diese Daten sind ohne Gewähr und dürfen nicht für die Flugvorbereitung verwendet werden.
Information contained in this website shall not be used for flight operation purposes.